Weather History for West Memphis, AR

Change the Weather History Date:

Wednesday, August 20, 2014

  Actual Average Record
Temperature  
Mean Temperature 83 °F -  
Max Temperature 93 °F 90 °F 99 °F (2005)
Min Temperature 75 °F 69 °F 59 °F (1991)
Cooling Degree Days 18    
Growing Degree Days 33 (Base 50)    
Moisture  
Dew Point 75 °F    
Average Humidity 79    
Maximum Humidity 100    
Minimum Humidity 54    
Precipitation  
Precipitation 0.00 in - - ()
Sea Level Pressure  
Sea Level Pressure 29.96 in    
Wind  
Wind Speed 6 mph (SSW)    
Max Wind Speed 12 mph    
Max Gust Speed 18 mph    
Visibility 10 miles    
Events      
Averages and records for this station are not official NWS values.
T = Trace of Precipitation, MM = Missing Value Source: NWS Daily Summary

Daily Weather History Graph

Daily Weather History Graph

Search for Another Location

Airport:

Trip Planner

Search our weather history database for the weather conditions in past years. The results will help you decide how hot, cold, wet, or windy it might be!

Date:

Astronomy

Aug. 20, 2014 Rise Set
Actual Time 6:24 AM CDT 7:43 PM CDT
Civil Twilight 5:58 AM CDT 8:09 PM CDT
Nautical Twilight 5:26 AM CDT 8:41 PM CDT
Astronomical Twilight 4:53 AM CDT 9:14 PM CDT
Moon 2:08 AM CDT (8/20) 4:24 PM CDT (8/20)
Length of Visible Light 14h 11m
Length of Day
13h 18m
Waning Crescent, 20% of the Moon is Illuminated
Aug 20
Waning Crescent
Aug 25
New
Sep 2
First Quarter
Sep 8
Full
Sep 15
Last Quarter

Hourly Weather History & Observations

Time (CDT) Temp. Heat Index Dew Point Humidity Pressure Visibility Wind Dir Wind Speed Gust Speed Precip Events Conditions
12:53 AM 80.1 °F 86.7 °F 79.0 °F 96% 29.87 in 10.0 mi Variable 5.8 mph - N/A   Clear
1:53 AM 80.1 °F 86.4 °F 78.1 °F 94% 29.86 in 10.0 mi SW 5.8 mph - N/A   Clear
2:53 AM 78.1 °F - 78.1 °F 100% 29.87 in 10.0 mi Variable 3.5 mph - N/A   Clear
3:53 AM 75.9 °F - 75.9 °F 100% 29.88 in 8.0 mi Calm Calm - N/A   Clear
4:53 AM 77.0 °F - 75.9 °F 96% 29.90 in 10.0 mi South 4.6 mph - N/A   Clear
5:53 AM 75.9 °F - 75.9 °F 100% 29.92 in 10.0 mi SSW 5.8 mph - N/A   Clear
6:53 AM 75.9 °F - 75.0 °F 97% 29.95 in 10.0 mi SSW 6.9 mph - N/A   Clear
7:53 AM 78.1 °F - 75.9 °F 93% 29.96 in 10.0 mi Variable 5.8 mph - N/A   Clear
8:53 AM 81.0 °F 87.3 °F 75.9 °F 85% 29.98 in 10.0 mi Variable 6.9 mph - N/A   Clear
9:53 AM 84.0 °F 93.7 °F 77.0 °F 79% 30.00 in 10.0 mi Variable 4.6 mph - N/A   Clear
10:53 AM 88.0 °F 100.2 °F 77.0 °F 70% 30.00 in 10.0 mi SSW 8.1 mph - N/A   Clear
11:53 AM 90.0 °F 100.2 °F 75.0 °F 61% 30.00 in 10.0 mi SW 6.9 mph - N/A   Clear
12:53 PM 91.0 °F 99.3 °F 73.0 °F 55% 30.00 in 10.0 mi SW 11.5 mph 18.4 mph N/A   Clear
1:53 PM 91.9 °F 101.3 °F 73.9 °F 55% 30.00 in 10.0 mi Variable 5.8 mph - N/A   Clear
2:53 PM 91.9 °F 100.7 °F 73.0 °F 54% 29.99 in 10.0 mi SW 5.8 mph - N/A   Clear
3:53 PM 91.9 °F 100.7 °F 73.0 °F 54% 29.97 in 10.0 mi SW 8.1 mph - N/A   Clear
4:53 PM 91.0 °F 99.3 °F 73.0 °F 55% 29.95 in 10.0 mi SSW 8.1 mph - N/A   Clear
5:53 PM 90.0 °F 99.0 °F 73.9 °F 59% 29.95 in 10.0 mi SW 8.1 mph - N/A   Clear
6:53 PM 87.1 °F 94.5 °F 73.0 °F 63% 29.94 in 10.0 mi SW 6.9 mph - N/A   Clear
7:53 PM 82.9 °F 90.2 °F 75.0 °F 77% 29.96 in 10.0 mi SSW 4.6 mph - N/A   Clear
8:53 PM 79.0 °F - 73.9 °F 84% 30.00 in 10.0 mi South 4.6 mph - N/A   Clear
9:53 PM 78.1 °F - 75.0 °F 90% 30.03 in 10.0 mi South 3.5 mph - N/A   Clear
10:53 PM 78.1 °F - 75.0 °F 90% 30.03 in 10.0 mi South 5.8 mph - N/A   Clear
11:53 PM 77.0 °F - 75.0 °F 94% 30.02 in 10.0 mi South 3.5 mph - N/A   Clear